| time (UTC) | temp C | wind direction | speed KPH | gust KPH | rain 1hr cm | rain 24hr cm | rain mn cm | humidity % | barometer mb |
| 20260504223414 | 27 | 286 | 1.6 | 4.8 | 0.00 | 0.00 | 0.00 | 43 | 3401.3 |
| 20260504222910 | 27 | 203 | 9.7 | 16.1 | 0.00 | 0.00 | 0.00 | 42 | 3401.4 |
| 20260504222407 | 27 | 256 | 19.3 | 24.1 | 0.00 | 0.00 | 0.00 | 42 | 3401.4 |
| 20260504221906 | 27 | 109 | 1.6 | 3.2 | 0.00 | 0.00 | 0.00 | 44 | 3401.4 |
| 20260504221402 | 27 | 134 | 6.4 | 11.3 | 0.00 | 0.00 | 0.00 | 42 | 3401.3 |
| 20260504220859 | 27 | 214 | 11.3 | 12.9 | 0.00 | 0.00 | 0.00 | 42 | 3401.3 |
| 20260504220356 | 27 | 246 | 6.4 | 8.0 | 0.00 | 0.00 | 0.00 | 42 | 3401.2 |
| 20260504215853 | 27 | 25 | 3.2 | 4.8 | 0.00 | 0.00 | 0.00 | 42 | 3401.5 |
| 20260504215349 | 27 | 286 | 4.8 | 8.0 | 0.00 | 0.00 | 0.00 | 42 | 3401.3 |
| 20260504214846 | 27 | 290 | 11.3 | 16.1 | 0.00 | 0.00 | 0.00 | 44 | 3401.3 |
| 20260504214343 | 27 | 150 | 1.6 | 3.2 | 0.00 | 0.00 | 0.00 | 44 | 3401.2 |
| 20260504213840 | 26 | 186 | 11.3 | 16.1 | 0.00 | 0.00 | 0.00 | 45 | 3401.2 |
| 20260504213335 | 26 | 75 | 3.2 | 3.2 | 0.00 | 0.00 | 0.00 | 46 | 3400.9 |
| 20260504212833 | 26 | 138 | 6.4 | 8.0 | 0.00 | 0.00 | 0.00 | 44 | 3401.2 |
| 20260504212329 | 26 | 76 | 4.8 | 8.0 | 0.00 | 0.00 | 0.00 | 44 | 3401.2 |
| 20260504211827 | 26 | 123 | 1.6 | 3.2 | 0.00 | 0.00 | 0.00 | 44 | 3401.2 |
| 20260504211322 | 27 | 204 | 6.4 | 12.9 | 0.00 | 0.00 | 0.00 | 45 | 3401.1 |
| 20260504210820 | 27 | 84 | 3.2 | 4.8 | 0.00 | 0.00 | 0.00 | 44 | 3401.0 |
| 20260504210317 | 27 | 228 | 4.8 | 8.0 | 0.00 | 0.00 | 0.00 | 44 | 3401.2 |
| 20260504205814 | 27 | 238 | 11.3 | 17.7 | 0.00 | 0.00 | 0.00 | 43 | 3401.1 |
| 20260504205312 | 27 | 273 | 1.6 | 4.8 | 0.00 | 0.00 | 0.00 | 45 | 3401.0 |
| 20260504204810 | 27 | 105 | 0.0 | 0.0 | 0.00 | 0.00 | 0.00 | 44 | 3400.8 |
| 20260504204308 | 27 | 74 | 3.2 | 4.8 | 0.00 | 0.00 | 0.00 | 45 | 3401.1 |
| 20260504203807 | 26 | 147 | 3.2 | 4.8 | 0.00 | 0.00 | 0.00 | 45 | 3401.4 |
| 20260504203304 | 27 | 180 | 11.3 | 16.1 | 0.00 | 0.00 | 0.00 | 44 | 3401.3 |
| 20260504202758 | 27 | 140 | 4.8 | 4.8 | 0.00 | 0.00 | 0.00 | 44 | 3401.1 |
| 20260504202256 | 27 | 156 | 11.3 | 20.9 | 0.00 | 0.00 | 0.00 | 46 | 3401.1 |
| 20260504201753 | 27 | 223 | 8.0 | 11.3 | 0.00 | 0.00 | 0.00 | 46 | 3401.1 |
| 20260504201250 | 27 | 162 | 4.8 | 4.8 | 0.00 | 0.00 | 0.00 | 50 | 3401.2 |
| 20260504200748 | 27 | 151 | 1.6 | 3.2 | 0.00 | 0.00 | 0.00 | 47 | 3401.3 |
| 20260504200243 | 27 | 117 | 0.0 | 3.2 | 0.00 | 0.00 | 0.00 | 47 | 3401.3 |
| 20260504195740 | 27 | 109 | 3.2 | 8.0 | 0.00 | 0.00 | 0.00 | 49 | 3401.1 |
| 20260504195236 | 27 | 144 | 4.8 | 8.0 | 0.00 | 0.00 | 0.00 | 48 | 3401.0 |
| 20260504194734 | 26 | 186 | 9.7 | 12.9 | 0.00 | 0.00 | 0.00 | 49 | 3401.1 |
| 20260504194229 | 27 | 181 | 3.2 | 4.8 | 0.00 | 0.00 | 0.00 | 47 | 3401.4 |
| 20260504193726 | 27 | 162 | 4.8 | 8.0 | 0.00 | 0.00 | 0.00 | 47 | 3401.6 |
| 20260504193224 | 27 | 137 | 1.6 | 3.2 | 0.00 | 0.00 | 0.00 | 46 | 3401.5 |
| 20260504192722 | 27 | 263 | 9.7 | 16.1 | 0.00 | 0.00 | 0.00 | 46 | 3401.3 |
| 20260504192219 | 27 | 142 | 0.0 | 0.0 | 0.00 | 0.00 | 0.00 | 49 | 3401.6 |
| 20260504191718 | 26 | 105 | 3.2 | 4.8 | 0.00 | 0.00 | 0.00 | 50 | 3401.9 |
| 20260504191215 | 26 | 12 | 1.6 | 4.8 | 0.00 | 0.00 | 0.00 | 49 | 3401.8 |
| 20260504190710 | 26 | 83 | 0.0 | 3.2 | 0.00 | 0.00 | 0.00 | 48 | 3402.0 |
| 20260504190206 | 26 | 173 | 8.0 | 20.9 | 0.00 | 0.00 | 0.00 | 47 | 3402.1 |
| 20260504185703 | 26 | 80 | 4.8 | 8.0 | 0.00 | 0.00 | 0.00 | 48 | 3402.1 |
| 20260504185159 | 26 | 125 | 4.8 | 8.0 | 0.00 | 0.00 | 0.00 | 49 | 3402.2 |
| 20260504184655 | 26 | 222 | 8.0 | 12.9 | 0.00 | 0.00 | 0.00 | 48 | 3402.2 |
| 20260504184150 | 26 | 220 | 11.3 | 12.9 | 0.00 | 0.00 | 0.00 | 50 | 3402.1 |
| 20260504183648 | 26 | 52 | 3.2 | 4.8 | 0.00 | 0.00 | 0.00 | 49 | 3402.1 |
| 20260504183145 | 26 | 42 | 1.6 | 3.2 | 0.00 | 0.00 | 0.00 | 50 | 3402.2 |
| 20260504182643 | 26 | 95 | 1.6 | 3.2 | 0.00 | 0.00 | 0.00 | 50 | 3402.3 |
| 20260504182140 | 26 | 227 | 9.7 | 16.1 | 0.00 | 0.00 | 0.00 | 50 | 3402.7 |
| 20260504181637 | 27 | 295 | 11.3 | 20.9 | 0.00 | 0.00 | 0.00 | 48 | 3402.4 |
| 20260504181135 | 27 | 339 | 4.8 | 12.9 | 0.00 | 0.00 | 0.00 | 52 | 3402.3 |
| 20260504180634 | 27 | 292 | 3.2 | 4.8 | 0.00 | 0.00 | 0.00 | 51 | 3402.4 |
| 20260504180132 | 26 | 245 | 3.2 | 4.8 | 0.00 | 0.00 | 0.00 | 52 | 3402.7 |
| 20260504175629 | 26 | 137 | 3.2 | 4.8 | 0.00 | 0.00 | 0.00 | 52 | 3402.7 |
| 20260504175125 | 26 | 319 | 4.8 | 4.8 | 0.00 | 0.00 | 0.00 | 52 | 3402.9 |
| 20260504174624 | 26 | 17 | 9.7 | 12.9 | 0.00 | 0.00 | 0.00 | 53 | 3402.9 |
| 20260504174120 | 25 | 187 | 8.0 | 12.9 | 0.00 | 0.00 | 0.00 | 55 | 3402.9 |
| 20260504173618 | 25 | 90 | 1.6 | 3.2 | 0.00 | 0.00 | 0.00 | 53 | 3403.0 |
| 20260504173115 | 25 | 138 | 4.8 | 4.8 | 0.00 | 0.00 | 0.00 | 56 | 3403.1 |
| 20260504172611 | 25 | 137 | 1.6 | 3.2 | 0.00 | 0.00 | 0.00 | 53 | 3403.3 |
| 20260504172108 | 25 | 152 | 3.2 | 4.8 | 0.00 | 0.00 | 0.00 | 54 | 3403.2 |
| 20260504171604 | 25 | 109 | 4.8 | 8.0 | 0.00 | 0.00 | 0.00 | 55 | 3403.2 |
| 20260504171102 | 24 | 29 | 1.6 | 3.2 | 0.00 | 0.00 | 0.00 | 55 | 3403.1 |
| 20260504170557 | 24 | 130 | 4.8 | 8.0 | 0.00 | 0.00 | 0.00 | 56 | 3403.3 |
| 20260504150941 | 19 | 262 | 0.0 | 0.0 | 0.00 | 0.00 | 0.00 | 73 | 3404.6 |
| 20260504150438 | 19 | 114 | 1.6 | 3.2 | 0.00 | 0.00 | 0.00 | 71 | 3404.4 |
| 20260504140904 | 16 | 85 | 0.0 | 3.2 | 0.00 | 0.00 | 0.00 | 76 | 3405.2 |
| 20260504140400 | 16 | 86 | 0.0 | 0.0 | 0.00 | 0.00 | 0.00 | 76 | 3404.8 |
| 20260504130325 | 13 | 94 | 0.0 | 0.0 | 0.00 | 0.00 | 0.00 | 78 | 3405.8 |
| 20260504120248 | 12 | 111 | 0.0 | 0.0 | 0.00 | 0.00 | 0.00 | 84 | 3406.1 |
| 20260504110716 | 11 | 83 | 0.0 | 0.0 | 0.00 | 0.00 | 0.00 | 84 | 3405.2 |
| 20260504110212 | 11 | 83 | 1.6 | 3.2 | 0.00 | 0.00 | 0.00 | 84 | 3405.0 |
| 20260504100131 | 12 | 100 | 0.0 | 0.0 | 0.00 | 0.00 | 0.00 | 79 | 3404.2 |
| 20260504081524 | 13 | 108 | 0.0 | 0.0 | 0.00 | 0.00 | 0.00 | 72 | 3404.0 |
| 20260504081019 | 13 | 84 | 4.8 | 8.0 | 0.00 | 0.00 | 0.00 | 72 | 3404.1 |
| 20260504080516 | 13 | 116 | 0.0 | 0.0 | 0.00 | 0.00 | 0.00 | 72 | 3403.9 |
| 20260504050328 | 10 | 71 | 0.0 | 0.0 | 0.00 | 0.00 | 0.00 | 82 | 3405.8 |
| 20260504045825 | 10 | 71 | 0.0 | 0.0 | 0.00 | 0.00 | 0.00 | 82 | 3406.2 |
| 20260504045320 | 10 | 71 | 0.0 | 0.0 | 0.00 | 0.00 | 0.00 | 82 | 3405.7 |
| 20260504044817 | 10 | 71 | 0.0 | 0.0 | 0.00 | 0.00 | 0.00 | 82 | 3406.0 |
| 20260504044315 | 10 | 71 | 0.0 | 0.0 | 0.00 | 0.00 | 0.00 | 83 | 3405.8 |
| 20260504043812 | 10 | 71 | 0.0 | 0.0 | 0.00 | 0.00 | 0.00 | 83 | 3405.8 |
| 20260504043309 | 10 | 71 | 0.0 | 0.0 | 0.00 | 0.00 | 0.00 | 83 | 3405.9 |
| 20260504042806 | 10 | 71 | 0.0 | 0.0 | 0.00 | 0.00 | 0.00 | 83 | 3406.3 |
| 20260504042304 | 10 | 71 | 0.0 | 0.0 | 0.00 | 0.00 | 0.00 | 83 | 3406.1 |
| 20260504041759 | 10 | 71 | 0.0 | 0.0 | 0.00 | 0.00 | 0.00 | 83 | 3406.1 |
| 20260504041255 | 10 | 71 | 0.0 | 0.0 | 0.00 | 0.00 | 0.00 | 82 | 3406.3 |
| 20260504040751 | 10 | 71 | 0.0 | 0.0 | 0.00 | 0.00 | 0.00 | 82 | 3406.3 |
| 20260504040249 | 10 | 71 | 0.0 | 0.0 | 0.00 | 0.00 | 0.00 | 81 | 3406.3 |
| 20260504035744 | 10 | 71 | 0.0 | 0.0 | 0.00 | 0.00 | 0.00 | 81 | 3406.5 |
| 20260504035242 | 10 | 71 | 0.0 | 0.0 | 0.00 | 0.00 | 0.00 | 81 | 3406.7 |
| 20260504034739 | 10 | 71 | 0.0 | 0.0 | 0.00 | 0.00 | 0.00 | 81 | 3406.6 |
| 20260504034237 | 10 | 71 | 0.0 | 0.0 | 0.00 | 0.00 | 0.00 | 81 | 3406.7 |
| 20260504033734 | 11 | 71 | 0.0 | 0.0 | 0.00 | 0.00 | 0.00 | 81 | 3406.6 |
| 20260504033231 | 11 | 71 | 0.0 | 0.0 | 0.00 | 0.00 | 0.00 | 81 | 3406.7 |
| 20260504032728 | 11 | 71 | 0.0 | 0.0 | 0.00 | 0.00 | 0.00 | 81 | 3406.7 |
| 20260504032225 | 11 | 71 | 0.0 | 0.0 | 0.00 | 0.00 | 0.00 | 80 | 3406.4 |
| 20260504031722 | 11 | 71 | 0.0 | 0.0 | 0.00 | 0.00 | 0.00 | 80 | 3406.7 |
| 20260504031220 | 11 | 71 | 0.0 | 0.0 | 0.00 | 0.00 | 0.00 | 80 | 3406.6 |
| 20260504030715 | 11 | 71 | 0.0 | 0.0 | 0.00 | 0.00 | 0.00 | 80 | 3406.7 |
| 20260504030213 | 11 | 71 | 0.0 | 0.0 | 0.00 | 0.00 | 0.00 | 80 | 3406.6 |
| 20260504025709 | 11 | 71 | 0.0 | 0.0 | 0.00 | 0.00 | 0.00 | 79 | 3406.7 |
| 20260504025206 | 11 | 71 | 0.0 | 0.0 | 0.00 | 0.00 | 0.00 | 78 | 3406.6 |
| 20260504024703 | 11 | 71 | 0.0 | 0.0 | 0.00 | 0.00 | 0.00 | 78 | 3406.8 |
| 20260504024159 | 11 | 71 | 0.0 | 0.0 | 0.00 | 0.00 | 0.00 | 78 | 3406.9 |
| 20260504023656 | 11 | 71 | 0.0 | 0.0 | 0.00 | 0.00 | 0.00 | 77 | 3406.5 |
| 20260504023152 | 11 | 71 | 0.0 | 0.0 | 0.00 | 0.00 | 0.00 | 77 | 3406.8 |
| 20260504022648 | 11 | 71 | 0.0 | 0.0 | 0.00 | 0.00 | 0.00 | 77 | 3406.8 |
| 20260504022144 | 12 | 71 | 0.0 | 0.0 | 0.00 | 0.00 | 0.00 | 77 | 3406.9 |
| 20260504021642 | 12 | 71 | 0.0 | 0.0 | 0.00 | 0.00 | 0.00 | 77 | 3406.9 |
| 20260504021139 | 12 | 71 | 0.0 | 0.0 | 0.00 | 0.00 | 0.00 | 76 | 3407.1 |
| 20260504020636 | 12 | 71 | 0.0 | 0.0 | 0.00 | 0.00 | 0.00 | 75 | 3407.0 |
| 20260504020132 | 13 | 71 | 0.0 | 0.0 | 0.00 | 0.00 | 0.00 | 74 | 3407.0 |
| 20260504015629 | 13 | 71 | 0.0 | 0.0 | 0.00 | 0.00 | 0.00 | 73 | 3406.8 |
| 20260504015125 | 13 | 71 | 0.0 | 0.0 | 0.00 | 0.00 | 0.00 | 69 | 3407.0 |
| 20260504014621 | 13 | 71 | 0.0 | 0.0 | 0.00 | 0.00 | 0.00 | 67 | 3406.8 |
| 20260504014118 | 13 | 71 | 0.0 | 0.0 | 0.00 | 0.00 | 0.00 | 65 | 3406.5 |
| 20260504013616 | 14 | 71 | 0.0 | 0.0 | 0.00 | 0.00 | 0.00 | 64 | 3406.3 |
| 20260504013113 | 14 | 71 | 0.0 | 0.0 | 0.00 | 0.00 | 0.00 | 64 | 3406.4 |
| 20260504012610 | 14 | 71 | 0.0 | 0.0 | 0.00 | 0.00 | 0.00 | 64 | 3406.5 |
| 20260504012108 | 14 | 71 | 0.0 | 0.0 | 0.00 | 0.00 | 0.00 | 65 | 3406.2 |
| 20260504011604 | 15 | 71 | 0.0 | 0.0 | 0.00 | 0.00 | 0.00 | 63 | 3406.0 |
| 20260504011100 | 15 | 71 | 0.0 | 0.0 | 0.00 | 0.00 | 0.00 | 64 | 3406.0 |
| 20260504010556 | 15 | 71 | 0.0 | 0.0 | 0.00 | 0.00 | 0.00 | 63 | 3406.0 |
| 20260504010052 | 15 | 71 | 0.0 | 0.0 | 0.00 | 0.00 | 0.00 | 60 | 3406.0 |
| 20260504005549 | 15 | 71 | 0.0 | 0.0 | 0.00 | 0.00 | 0.00 | 60 | 3406.0 |
| 20260504005047 | 16 | 71 | 0.0 | 0.0 | 0.00 | 0.00 | 0.00 | 59 | 3406.0 |
| 20260504004544 | 16 | 151 | 0.0 | 0.0 | 0.00 | 0.00 | 0.00 | 59 | 3406.1 |
| 20260504004041 | 16 | 153 | 0.0 | 0.0 | 0.00 | 0.00 | 0.00 | 58 | 3405.9 |
| 20260504003537 | 16 | 153 | 0.0 | 3.2 | 0.00 | 0.00 | 0.00 | 56 | 3406.1 |
| 20260504003034 | 16 | 154 | 0.0 | 0.0 | 0.00 | 0.00 | 0.00 | 57 | 3406.0 |
| 20260504002531 | 16 | 155 | 0.0 | 0.0 | 0.00 | 0.00 | 0.00 | 56 | 3406.2 |
| 20260504002029 | 17 | 155 | 0.0 | 0.0 | 0.00 | 0.00 | 0.00 | 56 | 3406.1 |
| 20260504001526 | 17 | 155 | 0.0 | 3.2 | 0.00 | 0.00 | 0.00 | 55 | 3406.1 |
| 20260504001022 | 17 | 155 | 0.0 | 0.0 | 0.00 | 0.00 | 0.00 | 55 | 3406.1 |
| 20260504000520 | 17 | 155 | 0.0 | 0.0 | 0.00 | 0.00 | 0.00 | 54 | 3406.2 |
| 20260504000017 | 17 | 155 | 0.0 | 0.0 | 0.00 | 0.00 | 0.00 | 52 | 3406.0 |
| 20260503235515 | 18 | 156 | 0.0 | 0.0 | 0.00 | 0.00 | 0.00 | 52 | 3406.2 |
| 20260503235012 | 18 | 104 | 0.0 | 0.0 | 0.00 | 0.00 | 0.00 | 52 | 3406.3 |
| 20260503234509 | 18 | 142 | 3.2 | 4.8 | 0.00 | 0.00 | 0.00 | 51 | 3406.6 |
| 20260503234008 | 18 | 163 | 4.8 | 4.8 | 0.00 | 0.00 | 0.00 | 50 | 3406.5 |
| 20260503233503 | 18 | 102 | 1.6 | 3.2 | 0.00 | 0.00 | 0.00 | 50 | 3406.5 |
| 20260503232959 | 18 | 46 | 1.6 | 4.8 | 0.00 | 0.00 | 0.00 | 50 | 3406.5 |
| 20260503232456 | 18 | 180 | 3.2 | 4.8 | 0.00 | 0.00 | 0.00 | 51 | 3406.4 |
| 20260503231954 | 18 | 102 | 1.6 | 3.2 | 0.00 | 0.00 | 0.00 | 51 | 3406.3 |
| 20260503231452 | 18 | 274 | 6.4 | 8.0 | 0.00 | 0.00 | 0.00 | 50 | 3406.5 |
| 20260503230948 | 19 | 158 | 1.6 | 3.2 | 0.00 | 0.00 | 0.00 | 49 | 3406.7 |
| 20260503230445 | 20 | 82 | 1.6 | 3.2 | 0.00 | 0.00 | 0.00 | 47 | 3406.5 |
| 20260503225942 | 20 | 133 | 0.0 | 3.2 | 0.00 | 0.00 | 0.00 | 47 | 3406.6 |
| 20260503225439 | 20 | 133 | 0.0 | 0.0 | 0.00 | 0.00 | 0.00 | 48 | 3406.8 |
| 20260503224934 | 20 | 245 | 4.8 | 8.0 | 0.00 | 0.00 | 0.00 | 47 | 3406.7 |
| 20260503224432 | 20 | 108 | 4.8 | 4.8 | 0.00 | 0.00 | 0.00 | 46 | 3406.9 |
| 20260503223929 | 20 | 116 | 0.0 | 3.2 | 0.00 | 0.00 | 0.00 | 47 | 3407.2 |
| 20260503223427 | 20 | 207 | 4.8 | 8.0 | 0.00 | 0.00 | 0.00 | 45 | 3407.3 |